Racecast

Aiden Chandler

Virginia Elite (VA) · 4 · Compare head to head

Athlete rating
Races 97
Seasons 2 2025 — 2026
Speed rating — all races

Track & Field

TF speed rating

2026 TF

Virginia Elite (VA) · Grade 4

Date Meet Event Result Place Rating Difficulty PR/SR Flags
2026-06-13 AAU Virginia District Qualifier - South 200m 26.76 1st · 1st on team -0.033 ★PR SR
2026-06-13 AAU Virginia District Qualifier - South 100m 13.16 1st · 1st on team -0.033 ★PR SR
2026-05-30 Va Beach Flames Invite 200m 29.22 3rd · 1st on team -0.023
2026-05-30 Va Beach Flames Invite 100m 13.38 1st · 1st on team -0.023
2026-05-30 Va Beach Flames Invite 100m 13.56 2nd · 2nd on team -0.023
2026-05-09 VA "Legends" T & F Youth Invite 100m 13.66 1st · 1st on team -0.033
2026-05-09 VA "Legends" T & F Youth Invite 200m 28.98 3rd · 1st on team -0.033
2026-05-02 The DMV Track and Field Classic 200m 30.57 1st · 1st on team -0.021
2026-05-02 The DMV Track and Field Classic 100m 13.75 1st · 1st on team -0.021
2026-05-02 The DMV Track and Field Classic 100m 13.97 3rd · 2nd on team -0.021
2026-04-26 Virginia Pride Spring Kick-Off 200m 29.56 1st · 1st on team -0.029
2026-04-26 Virginia Pride Spring Kick-Off 100m 14.35 1st · 1st on team -0.029
2026-03-06 AAU Indoor National Championship 200m 27.32 5th · 1st on team -0.036 PR SR
2026-03-06 AAU Indoor National Championship 60m 8.36 2nd · 1st on team -0.036
2026-03-06 AAU Indoor National Championship 60m 8.51 6th · 2nd on team -0.036
2026-03-06 AAU Indoor National Championship 200m 28.01 11th · 2nd on team -0.036
2026-02-28 BWSP Queens and Kings Championships 200m 28.52 1st · 1st on team -0.024
2026-02-28 BWSP Queens and Kings Championships 55m 8.03 2nd · 2nd on team -0.024
2026-02-28 BWSP Queens and Kings Championships 55m 7.68 1st · 1st on team -0.024 ★PR SR
2026-02-22 3rd Annual HRH Winter Storm Classic 55m 7.73 1st · 1st on team -0.024 PR SR
2026-02-22 3rd Annual HRH Winter Storm Classic 55m 7.95 2nd · 2nd on team -0.024
2026-02-22 3rd Annual HRH Winter Storm Classic 200m 28.61 1st · 1st on team -0.024
2026-01-31 BWSP Queens and Kings - Meet 3 55m 7.8 1st · 1st on team -0.024
2026-01-31 BWSP Queens and Kings - Meet 3 55m 8.05 3rd · 2nd on team -0.024
2026-01-31 BWSP Queens and Kings - Meet 3 200m 29.41 1st · 1st on team -0.024
2026-01-25 Virginia Beach Flames Invitational 200m 28.86 1st · 1st on team -0.036
2026-01-25 Virginia Beach Flames Invitational 60m 8.63 1st · 1st on team -0.036
2026-01-25 Virginia Beach Flames Invitational 60m 8.65 2nd · 2nd on team -0.036
2026-01-17 BWSP Queens and Kings - Meet 2 55m 7.76 1st · 1st on team -0.024 PR SR
2026-01-17 BWSP Queens and Kings - Meet 2 55m 7.92 3rd · 2nd on team -0.024
2026-01-17 BWSP Queens and Kings - Meet 2 200m 28.81 1st · 1st on team -0.024
2026-01-04 Coach Miami Presents The DMV's INDOOR SPRINTFEST 60m 8.51 2nd · 2nd on team -0.036
2026-01-04 Coach Miami Presents The DMV's INDOOR SPRINTFEST 200m 29.63 2nd · 1st on team -0.036
2026-01-04 Coach Miami Presents The DMV's INDOOR SPRINTFEST 60m 8.5 1st · 1st on team -0.036
2025-10-30 AAU 14U Indoor National Championship 200m 28.85 2nd · 2nd on team -0.039
2025-10-30 AAU 14U Indoor National Championship 200m 28.41 1st · 1st on team -0.039
2025-10-30 AAU 14U Indoor National Championship 60m 8.45 2nd · 2nd on team -0.039 PR SR
2025-10-30 AAU 14U Indoor National Championship 60m 8.27 1st · 1st on team -0.039 ★PR SR
2025-08-02 AAU Junior Olympic Games lj 3.55m -0.032
2025-08-02 AAU Junior Olympic Games 100m 13.56 24th · 3rd on team -0.032 SR
2025-08-02 AAU Junior Olympic Games 200m 28.06 27th · 2nd on team -0.032 PR SR
2025-08-02 AAU Junior Olympic Games 100m 13.31 9th · 2nd on team -0.032 PR SR
2025-08-02 AAU Junior Olympic Games 200m 27.89 19th · 1st on team -0.032 PR SR
2025-08-02 AAU Junior Olympic Games 100m 13.22 7th · 1st on team -0.032 PR SR

2025 TF

Virginia Beach Flames (VA) · Grade 3

Date Meet Event Result Place Rating Difficulty PR/SR Flags
2025-07-12 Cannonball Cooper Invite 100m 13.44 1st · 1st on team -0.027
2025-07-05 F.I.A. Freedom Invitational 200m 29.41 3rd · 1st on team -0.021
2025-07-05 F.I.A. Freedom Invitational 100m 13.86 3rd · 1st on team -0.021
2025-07-05 F.I.A. Freedom Invitational 100m 14.41 4th · 2nd on team -0.021
2025-06-25 AAU Track & Field Region 5 Qualifier lj 12-11.50 -0.034
2025-06-25 AAU Track & Field Region 5 Qualifier 200m 28.29 1st · 1st on team -0.034 PR SR
2025-06-25 AAU Track & Field Region 5 Qualifier 100m 13.47 1st · 1st on team -0.034
2025-06-25 AAU Track & Field Region 5 Qualifier 100m 13.71 2nd · 2nd on team -0.034
2025-06-25 AAU Track & Field Region 5 Qualifier 200m 28.57 2nd · 2nd on team -0.034
2025-06-14 AAU Virginia District Qualifier (Southern) lj 11-08.00 -0.041
2025-06-14 AAU Virginia District Qualifier (Southern) 100m 13.75 1st · 1st on team -0.041
2025-06-14 AAU Virginia District Qualifier (Southern) 200m 29 1st · 1st on team -0.041
2025-05-31 Va Beach Flames Invite lj 11' 5.50" -0.023
2025-05-31 Va Beach Flames Invite 100m 14.12 7th · 1st on team -0.023
2025-05-31 Va Beach Flames Invite 200m 29.69 7th · 1st on team -0.023
2025-05-31 Va Beach Flames Invite 100m 14.23 8th · 2nd on team -0.023
2025-05-25 HR Hurricanes CAT 5 Invite lj 12' 5" -0.035
2025-05-25 HR Hurricanes CAT 5 Invite 100m 13.32 3rd · 1st on team -0.035 PR SR
2025-05-25 HR Hurricanes CAT 5 Invite 200m 29.15 4th · 1st on team -0.035
2025-05-25 HR Hurricanes CAT 5 Invite 100m 13.85 9th · 3rd on team -0.035
2025-05-04 Queen Harrison Youth Invite lj 11' 11" -0.033
2025-05-04 Queen Harrison Youth Invite 200m 29.96 2nd · 1st on team -0.033
2025-05-04 Queen Harrison Youth Invite 100m 14.11 2nd · 1st on team -0.033
2025-04-27 TRACK 757 Classic lj 3.60m -0.029
2025-04-27 TRACK 757 Classic 200m 29.99 4th · 1st on team -0.029
2025-04-27 TRACK 757 Classic 100m 13.9 4th · 4th on team -0.029
2025-04-27 TRACK 757 Classic 100m 13.8 3rd · 3rd on team -0.029
2025-04-19 20th Annual Bring the Heat Invitational lj DNS -0.032
2025-04-19 20th Annual Bring the Heat Invitational 200m 29.51 26th · 2nd on team -0.032
2025-04-19 20th Annual Bring the Heat Invitational 100m 13.72 10th · 2nd on team -0.032 PR SR
2025-03-07 AAU Indoor National Championships 200m 28.86 4th · 1st on team -0.036 PR SR
2025-03-07 AAU Indoor National Championships 60m 8.62 6th · 1st on team -0.036 PR SR
2025-03-07 AAU Indoor National Championships 60m 8.64 7th · 2nd on team -0.036
2025-03-07 AAU Indoor National Championships 200m 29.71 13th · 2nd on team -0.036
2025-02-22 BWSP Queens and Kings Championships 55m 8.09 4th · 4th on team -0.014
2025-02-22 BWSP Queens and Kings Championships 55m 8 3rd · 3rd on team -0.014
2025-02-22 BWSP Queens and Kings Championships 200m 29.57 3rd · 1st on team -0.014 PR SR
2025-02-16 HRH Winter Storm Classic 55m 7.99 2nd · 2nd on team -0.014 PR SR
2025-02-16 HRH Winter Storm Classic 55m 7.83 1st · 1st on team -0.014 PR SR
2025-02-02 Track757 Invite 60m 8.67 8th · 3rd on team -0.036 PR SR
2025-02-02 Track757 Invite 60m 8.74 11th · 4th on team -0.036
2025-02-02 Track757 Invite 200m 29.98 7th · 1st on team -0.036
2025-02-01 BWSP Queens and Kings - Meet 3 55m 8.09 4th · 4th on team -0.014
2025-02-01 BWSP Queens and Kings - Meet 3 55m 8.06 3rd · 3rd on team -0.014 PR SR
2025-02-01 BWSP Queens and Kings - Meet 3 200m 29.65 2nd · 1st on team -0.014 PR SR
2025-01-18 BWSP Queens and Kings - Meet 2 55m 8.11 3rd · 3rd on team -0.014
2025-01-18 BWSP Queens and Kings - Meet 2 55m 8.26 6th · 5th on team -0.014
2025-01-04 BWSP Queens and Kings - Meet 1 55m 8.09 3rd · 3rd on team -0.024 PR SR
2025-01-04 BWSP Queens and Kings - Meet 1 200m 30.08 3rd · 2nd on team -0.024 PR SR
2025-01-04 BWSP Queens and Kings - Meet 1 55m 8.12 4th · 4th on team -0.024
2024-12-22 Grant Holloway Invite '24 200m 30.95 4th · 1st on team -0.036 PR SR
2024-12-22 Grant Holloway Invite '24 60m 9.04 4th · 2nd on team -0.036 PR SR
2024-12-22 Grant Holloway Invite '24 60m 8.9 1st · 1st on team -0.036 PR SR